| time (UTC) | temp F | wind direction | speed MPH | gust MPH | rain 1hr in | rain 24hr in | rain mn in | humidity % | barometer mb |
| 20260504050508 | 52 | 227 | 2.0 | 4.0 | 0.00 | 0.00 | 0.00 | 53 | 1002.4 |
| 20260504050009 | 52 | 238 | 2.0 | 4.0 | 0.00 | 0.00 | 0.00 | 53 | 1002.5 |
| 20260504045503 | 53 | 218 | 2.0 | 5.0 | 0.00 | 0.00 | 0.00 | 52 | 1002.6 |
| 20260504045003 | 53 | 219 | 2.0 | 5.0 | 0.00 | 0.00 | 0.00 | 52 | 1002.7 |
| 20260504044520 | 53 | 185 | 2.0 | 5.0 | 0.00 | 0.00 | 0.00 | 53 | 1002.8 |
| 20260504044006 | 53 | 216 | 2.0 | 5.0 | 0.00 | 0.00 | 0.00 | 52 | 1002.9 |
| 20260504043507 | 52 | 205 | 2.0 | 5.0 | 0.00 | 0.00 | 0.00 | 52 | 1003.0 |
| 20260504043015 | 52 | 205 | 2.0 | 5.0 | 0.00 | 0.00 | 0.00 | 52 | 1003.1 |
| 20260504042507 | 53 | 214 | 2.0 | 4.0 | 0.00 | 0.00 | 0.00 | 52 | 1003.1 |
| 20260504042011 | 53 | 218 | 2.0 | 4.0 | 0.00 | 0.00 | 0.00 | 51 | 1003.2 |
| 20260504041533 | 53 | 219 | 2.0 | 5.0 | 0.00 | 0.00 | 0.00 | 51 | 1003.3 |
| 20260504041003 | 53 | 243 | 1.0 | 5.0 | 0.00 | 0.00 | 0.00 | 52 | 1003.4 |
| 20260504040509 | 53 | 229 | 2.0 | 4.0 | 0.00 | 0.00 | 0.00 | 54 | 1003.4 |
| 20260504040019 | 53 | 205 | 1.0 | 4.0 | 0.00 | 0.00 | 0.00 | 53 | 1003.5 |
| 20260504035505 | 53 | 196 | 2.0 | 5.0 | 0.00 | 0.00 | 0.00 | 54 | 1003.6 |
| 20260504035007 | 53 | 198 | 2.0 | 5.0 | 0.00 | 0.00 | 0.00 | 53 | 1003.7 |
| 20260504034518 | 53 | 196 | 2.0 | 4.0 | 0.00 | 0.00 | 0.00 | 56 | 1003.8 |
| 20260504034007 | 53 | 212 | 2.0 | 5.0 | 0.00 | 0.00 | 0.00 | 54 | 1003.8 |
| 20260504033506 | 53 | 217 | 2.0 | 5.0 | 0.00 | 0.00 | 0.00 | 53 | 1003.9 |
| 20260504033024 | 53 | 218 | 3.0 | 5.0 | 0.00 | 0.00 | 0.00 | 59 | 1004.0 |
| 20260504032509 | 53 | 221 | 1.0 | 3.0 | 0.00 | 0.00 | 0.00 | 60 | 1004.0 |
| 20260504032007 | 53 | 273 | 1.0 | 4.0 | 0.00 | 0.00 | 0.00 | 57 | 1004.0 |
| 20260504031522 | 54 | 214 | 1.0 | 4.0 | 0.00 | 0.00 | 0.00 | 52 | 1004.1 |
| 20260504031009 | 54 | 208 | 1.0 | 3.0 | 0.00 | 0.00 | 0.00 | 53 | 1004.1 |
| 20260504030509 | 54 | 221 | 2.0 | 4.0 | 0.00 | 0.00 | 0.00 | 51 | 1004.2 |
| 20260504030014 | 55 | 205 | 2.0 | 4.0 | 0.00 | 0.00 | 0.00 | 53 | 1004.3 |
| 20260504025507 | 55 | 227 | 2.0 | 4.0 | 0.00 | 0.00 | 0.00 | 51 | 1004.4 |
| 20260504025007 | 55 | 227 | 1.0 | 3.0 | 0.00 | 0.00 | 0.00 | 50 | 1004.4 |
| 20260504024515 | 56 | 215 | 1.0 | 3.0 | 0.00 | 0.00 | 0.00 | 50 | 1004.4 |
| 20260504024006 | 56 | 217 | 1.0 | 3.0 | 0.00 | 0.00 | 0.00 | 51 | 1004.5 |
| 20260504023506 | 57 | 196 | 2.0 | 3.0 | 0.00 | 0.00 | 0.00 | 47 | 1004.5 |
| 20260504023026 | 57 | 215 | 1.0 | 3.0 | 0.00 | 0.00 | 0.00 | 46 | 1004.6 |
| 20260504022504 | 58 | 218 | 1.0 | 4.0 | 0.00 | 0.00 | 0.00 | 45 | 1004.7 |
| 20260504022007 | 58 | 227 | 2.0 | 4.0 | 0.00 | 0.00 | 0.00 | 43 | 1004.7 |
| 20260504021527 | 59 | 221 | 1.0 | 4.0 | 0.00 | 0.00 | 0.00 | 40 | 1004.6 |
| 20260504021007 | 59 | 225 | 2.0 | 4.0 | 0.00 | 0.00 | 0.00 | 38 | 1004.6 |
| 20260504020503 | 60 | 226 | 2.0 | 3.0 | 0.00 | 0.00 | 0.00 | 37 | 1004.5 |
| 20260504020028 | 60 | 221 | 2.0 | 4.0 | 0.00 | 0.00 | 0.00 | 36 | 1004.5 |
| 20260504015505 | 61 | 221 | 2.0 | 4.0 | 0.00 | 0.00 | 0.00 | 36 | 1004.6 |
| 20260504015005 | 62 | 226 | 2.0 | 4.0 | 0.00 | 0.00 | 0.00 | 35 | 1004.6 |
| 20260504014522 | 62 | 229 | 2.0 | 6.0 | 0.00 | 0.00 | 0.00 | 34 | 1004.7 |
| 20260504014006 | 62 | 249 | 1.0 | 6.0 | 0.00 | 0.00 | 0.00 | 32 | 1004.8 |
| 20260504013505 | 63 | 234 | 2.0 | 5.0 | 0.00 | 0.00 | 0.00 | 33 | 1004.8 |
| 20260504013016 | 63 | 250 | 2.0 | 5.0 | 0.00 | 0.00 | 0.00 | 30 | 1004.9 |
| 20260504012505 | 63 | 247 | 2.0 | 7.0 | 0.00 | 0.00 | 0.00 | 30 | 1004.9 |
| 20260504012002 | 64 | 265 | 3.0 | 7.0 | 0.00 | 0.00 | 0.00 | 30 | 1004.9 |
| 20260504011509 | 64 | 265 | 4.0 | 7.0 | 0.00 | 0.00 | 0.00 | 30 | 1004.9 |
| 20260504011010 | 64 | 273 | 3.0 | 7.0 | 0.00 | 0.00 | 0.00 | 29 | 1004.9 |
| 20260504010502 | 65 | 265 | 2.0 | 7.0 | 0.00 | 0.00 | 0.00 | 29 | 1004.9 |
| 20260504010014 | 65 | 265 | 3.0 | 7.0 | 0.00 | 0.00 | 0.00 | 29 | 1005.0 |
| 20260504005507 | 65 | 288 | 2.0 | 10.0 | 0.00 | 0.00 | 0.00 | 28 | 1005.0 |
| 20260504005007 | 65 | 269 | 4.0 | 10.0 | 0.00 | 0.00 | 0.00 | 27 | 1005.1 |
| 20260504004511 | 66 | 281 | 3.0 | 9.0 | 0.00 | 0.00 | 0.00 | 28 | 1005.0 |
| 20260504004009 | 66 | 243 | 4.0 | 12.0 | 0.00 | 0.00 | 0.00 | 27 | 1005.0 |
| 20260504003508 | 66 | 254 | 6.0 | 14.0 | 0.00 | 0.00 | 0.00 | 26 | 1005.0 |
| 20260504003028 | 67 | 302 | 8.0 | 14.0 | 0.00 | 0.00 | 0.00 | 28 | 1005.1 |
| 20260504002503 | 67 | 238 | 4.0 | 14.0 | 0.00 | 0.00 | 0.00 | 26 | 1005.0 |
| 20260504002003 | 67 | 275 | 8.0 | 18.0 | 0.00 | 0.00 | 0.00 | 26 | 1005.1 |
| 20260504001521 | 67 | 261 | 7.0 | 18.0 | 0.00 | 0.00 | 0.00 | 27 | 1005.2 |
| 20260504001004 | 68 | 255 | 6.0 | 13.0 | 0.00 | 0.00 | 0.00 | 27 | 1005.2 |
| 20260504000507 | 68 | 267 | 7.0 | 13.0 | 0.00 | 0.00 | 0.00 | 27 | 1005.2 |
| 20260504000016 | 68 | 262 | 8.0 | 15.0 | 0.00 | 0.00 | 0.00 | 28 | 1005.1 |
| 20260503235506 | 68 | 261 | 9.0 | 17.0 | 0.00 | 0.00 | 0.00 | 25 | 1005.1 |
| 20260503235003 | 69 | 294 | 9.0 | 18.0 | 0.00 | 0.00 | 0.00 | 25 | 1005.1 |
| 20260503234520 | 69 | 254 | 10.0 | 18.0 | 0.00 | 0.00 | 0.00 | 27 | 1005.2 |
| 20260503234007 | 69 | 266 | 7.0 | 17.0 | 0.00 | 0.00 | 0.00 | 27 | 1005.1 |
| 20260503233503 | 70 | 240 | 8.0 | 16.0 | 0.00 | 0.00 | 0.00 | 26 | 1005.2 |
| 20260503233012 | 70 | 250 | 8.0 | 16.0 | 0.00 | 0.00 | 0.00 | 27 | 1005.2 |
| 20260503232504 | 70 | 261 | 7.0 | 14.0 | 0.00 | 0.00 | 0.00 | 28 | 1005.3 |
| 20260503232003 | 70 | 268 | 7.0 | 14.0 | 0.00 | 0.00 | 0.00 | 25 | 1005.4 |
| 20260503231510 | 71 | 306 | 9.0 | 15.0 | 0.00 | 0.00 | 0.00 | 26 | 1005.5 |
| 20260503231007 | 71 | 270 | 4.0 | 15.0 | 0.00 | 0.00 | 0.00 | 26 | 1005.4 |
| 20260503230509 | 71 | 304 | 7.0 | 15.0 | 0.00 | 0.00 | 0.00 | 25 | 1005.6 |
| 20260503230020 | 71 | 304 | 3.0 | 16.0 | 0.00 | 0.00 | 0.00 | 28 | 1005.6 |
| 20260503225504 | 70 | 310 | 4.0 | 16.0 | 0.00 | 0.00 | 0.00 | 26 | 1005.5 |
| 20260503225007 | 70 | 298 | 7.0 | 15.0 | 0.00 | 0.00 | 0.00 | 24 | 1005.6 |
| 20260503224522 | 71 | 238 | 9.0 | 17.0 | 0.00 | 0.00 | 0.00 | 26 | 1005.7 |
| 20260503224005 | 71 | 300 | 6.0 | 17.0 | 0.00 | 0.00 | 0.00 | 29 | 1005.7 |
| 20260503223507 | 71 | 273 | 8.0 | 15.0 | 0.00 | 0.00 | 0.00 | 26 | 1005.9 |
| 20260503223008 | 71 | 302 | 8.0 | 15.0 | 0.00 | 0.00 | 0.00 | 24 | 1005.8 |
| 20260503222503 | 71 | 295 | 9.0 | 16.0 | 0.00 | 0.00 | 0.00 | 23 | 1005.8 |
| 20260503222004 | 71 | 301 | 9.0 | 16.0 | 0.00 | 0.00 | 0.00 | 25 | 1005.8 |
| 20260503221515 | 71 | 301 | 8.0 | 21.0 | 0.00 | 0.00 | 0.00 | 24 | 1005.8 |
| 20260503221011 | 71 | 268 | 11.0 | 21.0 | 0.00 | 0.00 | 0.00 | 26 | 1005.9 |
| 20260503220506 | 71 | 307 | 10.0 | 22.0 | 0.00 | 0.00 | 0.00 | 24 | 1005.8 |
| 20260503220021 | 71 | 304 | 11.0 | 22.0 | 0.00 | 0.00 | 0.00 | 23 | 1005.9 |
| 20260503215510 | 71 | 312 | 11.0 | 18.0 | 0.00 | 0.00 | 0.00 | 25 | 1005.9 |
| 20260503215007 | 71 | 254 | 12.0 | 18.0 | 0.00 | 0.00 | 0.00 | 27 | 1005.9 |
| 20260503214534 | 71 | 289 | 9.0 | 20.0 | 0.00 | 0.00 | 0.00 | 27 | 1005.9 |
| 20260503214010 | 72 | 294 | 13.0 | 20.0 | 0.00 | 0.00 | 0.00 | 25 | 1005.9 |
| 20260503213507 | 72 | 282 | 7.0 | 19.0 | 0.00 | 0.00 | 0.00 | 28 | 1005.9 |
| 20260503213012 | 72 | 317 | 7.0 | 19.0 | 0.00 | 0.00 | 0.00 | 27 | 1006.0 |
| 20260503212504 | 72 | 267 | 11.0 | 19.0 | 0.00 | 0.00 | 0.00 | 29 | 1006.1 |
| 20260503212006 | 72 | 287 | 4.0 | 19.0 | 0.00 | 0.00 | 0.00 | 27 | 1006.0 |
| 20260503211519 | 72 | 338 | 6.0 | 19.0 | 0.00 | 0.00 | 0.00 | 28 | 1006.0 |
| 20260503211018 | 72 | 257 | 7.0 | 18.0 | 0.00 | 0.00 | 0.00 | 29 | 1006.1 |
| 20260503210507 | 72 | 254 | 9.0 | 18.0 | 0.00 | 0.00 | 0.00 | 26 | 1006.0 |
| 20260503210024 | 72 | 291 | 11.0 | 17.0 | 0.00 | 0.00 | 0.00 | 29 | 1006.1 |
| 20260503205503 | 72 | 254 | 7.0 | 14.0 | 0.00 | 0.00 | 0.00 | 27 | 1006.1 |
| 20260503205006 | 72 | 321 | 7.0 | 14.0 | 0.00 | 0.00 | 0.00 | 27 | 1006.2 |
| 20260503204524 | 71 | 234 | 4.0 | 19.0 | 0.00 | 0.00 | 0.00 | 29 | 1006.3 |
| 20260503204008 | 71 | 311 | 10.0 | 19.0 | 0.00 | 0.00 | 0.00 | 29 | 1006.4 |
| 20260503203502 | 71 | 302 | 7.0 | 22.0 | 0.00 | 0.00 | 0.00 | 27 | 1006.4 |
| 20260503203015 | 71 | 281 | 9.0 | 22.0 | 0.00 | 0.00 | 0.00 | 32 | 1006.7 |
| 20260503202506 | 72 | 289 | 12.0 | 21.0 | 0.00 | 0.00 | 0.00 | 29 | 1006.6 |
| 20260503202008 | 71 | 238 | 6.0 | 16.0 | 0.00 | 0.00 | 0.00 | 28 | 1006.4 |
| 20260503201520 | 71 | 313 | 6.0 | 17.0 | 0.00 | 0.00 | 0.00 | 30 | 1006.5 |
| 20260503201006 | 71 | 307 | 11.0 | 17.0 | 0.00 | 0.00 | 0.00 | 29 | 1006.7 |
| 20260503200509 | 71 | 287 | 6.0 | 17.0 | 0.00 | 0.00 | 0.00 | 28 | 1006.6 |
| 20260503200016 | 71 | 53 | 6.0 | 17.0 | 0.00 | 0.00 | 0.00 | 25 | 1006.8 |
| 20260503195509 | 71 | 205 | 8.0 | 20.0 | 0.00 | 0.00 | 0.00 | 30 | 1006.8 |
| 20260503195008 | 71 | 51 | 7.0 | 20.0 | 0.00 | 0.00 | 0.00 | 27 | 1006.8 |
| 20260503194526 | 71 | 280 | 9.0 | 18.0 | 0.00 | 0.00 | 0.00 | 27 | 1006.9 |
| 20260503194011 | 71 | 327 | 4.0 | 19.0 | 0.00 | 0.00 | 0.00 | 27 | 1007.1 |
| 20260503193508 | 71 | 250 | 9.0 | 19.0 | 0.00 | 0.00 | 0.00 | 33 | 1007.1 |
| 20260503193033 | 70 | 291 | 5.0 | 22.0 | 0.00 | 0.00 | 0.00 | 28 | 1007.0 |
| 20260503192505 | 70 | 300 | 13.0 | 22.0 | 0.00 | 0.00 | 0.00 | 28 | 1006.9 |
| 20260503192009 | 70 | 316 | 5.0 | 17.0 | 0.00 | 0.00 | 0.00 | 32 | 1006.8 |
| 20260503191549 | 69 | 10 | 9.0 | 23.0 | 0.00 | 0.00 | 0.00 | 28 | 1007.0 |
| 20260503191010 | 69 | 281 | 10.0 | 23.0 | 0.00 | 0.00 | 0.00 | 27 | 1007.1 |
| 20260503190505 | 70 | 312 | 8.0 | 19.0 | 0.00 | 0.00 | 0.00 | 30 | 1007.0 |
| 20260503190031 | 70 | 245 | 9.0 | 23.0 | 0.00 | 0.00 | 0.00 | 29 | 1007.0 |
| 20260503185510 | 70 | 153 | 12.0 | 23.0 | 0.00 | 0.00 | 0.00 | 30 | 1007.0 |
| 20260503185009 | 70 | 192 | 6.0 | 19.0 | 0.00 | 0.00 | 0.00 | 33 | 1007.0 |
| 20260503184524 | 70 | 286 | 7.0 | 20.0 | 0.00 | 0.00 | 0.00 | 32 | 1007.1 |
| 20260503184010 | 70 | 277 | 10.0 | 24.0 | 0.00 | 0.00 | 0.00 | 39 | 1007.3 |
| 20260503183510 | 69 | 294 | 13.0 | 24.0 | 0.00 | 0.00 | 0.00 | 32 | 1007.4 |
| 20260503183020 | 69 | 13 | 8.0 | 22.0 | 0.00 | 0.00 | 0.00 | 34 | 1007.3 |
| 20260503182505 | 69 | 324 | 12.0 | 22.0 | 0.00 | 0.00 | 0.00 | 33 | 1007.3 |
| 20260503182010 | 69 | 302 | 10.0 | 17.0 | 0.00 | 0.00 | 0.00 | 35 | 1007.2 |
| 20260503181515 | 69 | 262 | 10.0 | 19.0 | 0.00 | 0.00 | 0.00 | 36 | 1007.1 |
| 20260503181011 | 68 | 300 | 7.0 | 19.0 | 0.00 | 0.00 | 0.00 | 34 | 1007.4 |
| 20260503180507 | 68 | 281 | 10.0 | 17.0 | 0.00 | 0.00 | 0.00 | 33 | 1007.4 |
| 20260503180029 | 69 | 279 | 9.0 | 18.0 | 0.00 | 0.00 | 0.00 | 37 | 1007.4 |
| 20260503175506 | 69 | 309 | 10.0 | 20.0 | 0.00 | 0.00 | 0.00 | 34 | 1007.4 |
| 20260503175008 | 68 | 293 | 7.0 | 25.0 | 0.00 | 0.00 | 0.00 | 37 | 1007.5 |
| 20260503174526 | 68 | 245 | 10.0 | 25.0 | 0.00 | 0.00 | 0.00 | 34 | 1007.5 |
| 20260503174007 | 68 | 298 | 12.0 | 21.0 | 0.00 | 0.00 | 0.00 | 38 | 1007.6 |
| 20260503173506 | 68 | 294 | 11.0 | 21.0 | 0.00 | 0.00 | 0.00 | 34 | 1007.5 |
| 20260503173022 | 68 | 317 | 9.0 | 23.0 | 0.00 | 0.00 | 0.00 | 37 | 1007.7 |
| 20260503172507 | 68 | 305 | 8.0 | 23.0 | 0.00 | 0.00 | 0.00 | 35 | 1007.7 |
| 20260503172010 | 68 | 315 | 9.0 | 20.0 | 0.00 | 0.00 | 0.00 | 41 | 1007.6 |
| 20260503171523 | 68 | 317 | 8.0 | 21.0 | 0.00 | 0.00 | 0.00 | 36 | 1007.6 |
| 20260503171009 | 67 | 281 | 9.0 | 21.0 | 0.00 | 0.00 | 0.00 | 36 | 1007.6 |
| 20260503170510 | 68 | 268 | 11.0 | 20.0 | 0.00 | 0.00 | 0.00 | 38 | 1007.8 |
| 20260503151007 | 63 | 327 | 5.0 | 14.0 | 0.00 | 0.00 | 0.00 | 44 | 1007.3 |
| 20260503150503 | 63 | 24 | 5.0 | 13.0 | 0.00 | 0.00 | 0.00 | 45 | 1007.3 |
| 20260503131006 | 52 | 297 | 6.0 | 12.0 | 0.00 | 0.00 | 0.00 | 56 | 1006.3 |
| 20260503130504 | 52 | 295 | 6.0 | 14.0 | 0.00 | 0.00 | 0.00 | 56 | 1006.2 |
| 20260503110508 | 51 | 196 | 3.0 | 9.0 | 0.00 | 0.00 | 0.00 | 54 | 1004.8 |
| 20260503090508 | 54 | 230 | 3.0 | 11.0 | 0.00 | 0.00 | 0.00 | 48 | 1005.7 |
| 20260503081532 | 56 | 140 | 5.0 | 15.0 | 0.00 | 0.00 | 0.00 | 47 | 1005.8 |
| 20260503081008 | 56 | 221 | 5.0 | 15.0 | 0.00 | 0.00 | 0.00 | 46 | 1005.9 |
| 20260503080510 | 56 | 128 | 4.0 | 13.0 | 0.00 | 0.00 | 0.00 | 47 | 1006.0 |
| 20260503072512 | 57 | 170 | 4.0 | 15.0 | 0.00 | 0.00 | 0.00 | 48 | 1006.5 |
| 20260503072006 | 57 | 175 | 6.0 | 13.0 | 0.00 | 0.00 | 0.00 | 48 | 1006.6 |
| 20260503071521 | 57 | 214 | 7.0 | 18.0 | 0.00 | 0.00 | 0.00 | 48 | 1006.7 |
| 20260503071006 | 57 | 198 | 6.0 | 18.0 | 0.00 | 0.00 | 0.00 | 48 | 1006.8 |
| 20260503070503 | 57 | 160 | 5.0 | 14.0 | 0.00 | 0.00 | 0.00 | 49 | 1006.9 |
| 20260503055003 | 58 | 284 | 12.0 | 26.0 | 0.00 | 0.00 | 0.00 | 50 | 1008.4 |
| 20260503054512 | 57 | 288 | 12.0 | 22.0 | 0.00 | 0.00 | 0.00 | 49 | 1008.5 |
| 20260503054008 | 56 | 229 | 10.0 | 16.0 | 0.00 | 0.00 | 0.00 | 50 | 1008.6 |
| 20260503053504 | 55 | 250 | 8.0 | 13.0 | 0.00 | 0.00 | 0.00 | 50 | 1008.8 |
| 20260503053008 | 55 | 234 | 5.0 | 10.0 | 0.00 | 0.00 | 0.00 | 52 | 1008.6 |
| 20260503052505 | 55 | 240 | 3.0 | 8.0 | 0.00 | 0.00 | 0.00 | 52 | 1008.5 |
| 20260503052010 | 55 | 279 | 2.0 | 8.0 | 0.00 | 0.00 | 0.00 | 52 | 1008.5 |
| 20260503051503 | 55 | 200 | 3.0 | 10.0 | 0.00 | 0.00 | 0.00 | 52 | 1008.6 |